This is the latest recevied weather packets stored in our database for station/object KC3DGM. If no packets are shown the sender has not sent any weather packets the latest 10 day(s).
| Time | Temp. | Humidity | Pressure | Rain* | Wind** | Luminosity | Snow |
|---|---|---|---|---|---|---|---|
| 1778072210 | 8.33° C | 99% | 979.5 hPa | 0 mm | - | 47 W/m² | - |
| 1778071907 | 8.33° C | 99% | 979.3 hPa | 0 mm | - | 27 W/m² | - |
| 1778071605 | 8.33° C | 99% | 979.5 hPa | 0 mm | - | 37 W/m² | - |
| 1778071302 | 8.33° C | 99% | 979.5 hPa | 0 mm | - | 46 W/m² | - |
| 1778071000 | 8.33° C | 99% | 979.4 hPa | 0 mm | - | 31 W/m² | - |
| 1778070699 | 8.33° C | 99% | 979.4 hPa | 0 mm | - | 34 W/m² | - |
| 1778070395 | 8.33° C | 99% | 979.2 hPa | 0 mm | - | 35 W/m² | - |
| 1778070093 | 8.33° C | 99% | 979.6 hPa | 0 mm | - | 23 W/m² | - |
| 1778069790 | 8.33° C | 99% | 979.4 hPa | 0 mm | - | 26 W/m² | - |
| 1778069486 | 8.33° C | 99% | 979.5 hPa | 0 mm | - | 32 W/m² | - |
| 1778069184 | 8.33° C | 99% | 979.9 hPa | 0 mm | - | 14 W/m² | - |
| 1778068881 | 8.33° C | 99% | 980.1 hPa | 0 mm | - | 10 W/m² | - |
| 1778068580 | 8.33° C | 99% | 979.7 hPa | 0 mm | - | 11 W/m² | - |
| 1778068278 | 8.33° C | 99% | 979.6 hPa | 0 mm | - | 10 W/m² | - |
| 1778067975 | 8.33° C | 99% | 979.8 hPa | 0 mm | - | 6 W/m² | - |
| 1778067673 | 7.78° C | 99% | 979.3 hPa | 0 mm | - | 5 W/m² | - |
| 1778067371 | 7.78° C | 99% | 979.3 hPa | 0 mm | - | 6 W/m² | - |
| 1778067068 | 7.78° C | 99% | 979.2 hPa | 1.78 mm | - | 7 W/m² | - |
| 1778066764 | 7.78° C | 99% | 978.7 hPa | 1.78 mm | - | 15 W/m² | - |
| 1778066462 | 7.78° C | 99% | 978.4 hPa | 0 mm | - | 14 W/m² | - |
| 1778066159 | 8.33° C | 99% | 978.4 hPa | 0 mm | - | 15 W/m² | - |
| 1778065856 | 8.33° C | 99% | 978.5 hPa | 0 mm | - | 8 W/m² | - |
| 1778065554 | 8.33° C | 99% | 978.4 hPa | 1.27 mm | - | 12 W/m² | - |
| 1778065251 | 8.33° C | 99% | 978.8 hPa | 1.27 mm | - | 3 W/m² | - |
| 1778064947 | 8.33° C | 99% | 978.7 hPa | 1.78 mm | - | 1 W/m² | - |
* Rain latest hour (hover to see other rain measurements)
** Current wind speed in m/s (hover to see current wind gust speed)